Weather Service Report


727 
ASUS44 KLIX 170013
RWRLA 
LOUISIANA WEATHER ROUNDUP
NATIONAL WEATHER SERVICE NEW ORLEANS LA
700 PM CDT MON OCT 16 2017

NOTE: "FAIR" INDICATES FEW OR NO CLOUDS BELOW 12,000 FEET WITH NO
      SIGNIFICANT WEATHER AND/OR OBSTRUCTIONS TO VISIBILITY.
      SKY/WX - SKY CONDITION AND SIGNIFICANT WEATHER.
      TMP - AIR TEMPERATURE.    DP   - DEWPOINT TEMPERATURE.
      RH  - RELATIVE HUMIDITY.  PRES - PRESSURE.
      HX  - HEAT INDEX.         WCI  - WIND CHILL INDEX.

*  THESE STATIONS ARE NOT NWS OR FAA STATIONS AND ARE NOT UNDER
   NWS QUALITY CONTROL.

LAZ040-048-061>063-065-066-069-170100-
SOUTHEAST LOUISIANA
  
CITY           SKY/WX    TMP DP  RH WIND       PRES   REMARKS
N.O. INTL ARPT CLOUDY    71  50  47 N10G21    30.11R                  
6HR MIN TEMP:  71; 6HR MAX TEMP:  75;                                

N.O. LAKEFRONT CLOUDY    73  52  47 N20       30.12R                  
6HR MIN TEMP:  73; 6HR MAX TEMP:  77;                                

N.O. DOWNTOWN* FAIR      72  48  42 N7        30.12R                  
6HR MIN TEMP:  71; 6HR MAX TEMP:  76;                                

RESERVE*       FAIR      70  46  42 N13       30.13R                  
6HR MIN TEMP:  70; 6HR MAX TEMP:  76;                                

SLIDELL        PTCLDY    65  53  65 N6        30.12R                  
6HR MIN TEMP:  64; 6HR MAX TEMP:  76;                                

BATON ROUGE    MOCLDY    66  46  48 N7        30.15R                  
6HR MIN TEMP:  66; 6HR MAX TEMP:  75;                                

BOOTHVILLE     MOCLDY    74  57  55 N10G20    30.08R                  
6HR MIN TEMP:  71; 6HR MAX TEMP:  75;                                

BELLE CHASSE   NOT AVBL                                               
BOGALUSA*      FAIR      61  53  76 CALM      30.15R                  
6HR MIN TEMP:  61; 6HR MAX TEMP:  76;                                

GALLIANO*      PTCLDY    69  50  49 N10G16    30.10R                  
6HR MIN TEMP:  69; 6HR MAX TEMP:  74;                                

NEW ROADS*     FAIR      65  46  49 N6        30.17R                  
6HR MIN TEMP:  65; 6HR MAX TEMP:  75;                                

GONZALES*      FAIR      67  47  49 N6        30.13R                  
6HR MIN TEMP:  67; 6HR MAX TEMP:  75; 6HR PCP:  0.02;                

HAMMOND*       CLOUDY    61  48  63 N3        30.14R                  
HOUMA*         CLEAR     66  48  52 N7        30.11R                  
PORT FOURCHON* PTCLDY    73  54  49 N15G22    30.09S                  

$$

LAZ041-044-053-054-170100-
SOUTHWEST LOUISIANA
  
CITY           SKY/WX    TMP DP  RH WIND       PRES   REMARKS
LAKE CHARLES   CLEAR     70  46  42 N8        30.16R                  
6HR MIN TEMP:  70; 6HR MAX TEMP:  78;                                

LAFAYETTE      MOCLDY    69  44  40 N12       30.15R                  
6HR MIN TEMP:  69; 6HR MAX TEMP:  77;                                

PATTERSON      NOT AVBL                                               
SALT POINT       N/A     66  52  60 VRB3      30.11R                  
6HR MIN TEMP:  66; 6HR MAX TEMP:  75;                                

NEW IBERIA     PTCLDY    67  43  41 N12       30.15R                  
6HR MIN TEMP:  67; 6HR MAX TEMP:  76;                                

CHENAULT AIRPK CLEAR     68  46  45 N6        30.17R                  

$$

LAZ027-028-170100-
CENTRAL LOUISIANA
  
CITY           SKY/WX    TMP DP  RH WIND       PRES   REMARKS
FORT POLK      CLEAR     64  45  49 N6        30.20R                  
6HR MIN TEMP:  64; 6HR MAX TEMP:  73;                                

ALEXANDRIA INT CLEAR     65  42  43 N7        30.19R                  
6HR MIN TEMP:  65; 6HR MAX TEMP:  74;                                

ALEXANDRIA     CLEAR     65  41  41 CALM      30.20R                  
6HR MIN TEMP:  65; 6HR MAX TEMP:  74;                                


$$

LAZ001-002-170100-
NORTHWEST LOUISIANA
  
CITY           SKY/WX    TMP DP  RH WIND       PRES   REMARKS
SHREVEPORT     CLEAR     66  40  38 NE7       30.24R                  
6HR MIN TEMP:  66; 6HR MAX TEMP:  74;                                

BARKSDALE AFB  CLEAR     63  40  43 NE5       30.24R                  
6HR MIN TEMP:  63; 6HR MAX TEMP:  74;                                

DTN SHREVEPORT CLEAR     66  42  41 NE3       30.25R                  
6HR MIN TEMP:  66; 6HR MAX TEMP:  74;                                


$$

LAZ014-016-170100-
NORTHEAST LOUISIANA
  
CITY           SKY/WX    TMP DP  RH WIND       PRES   REMARKS
MONROE         CLEAR     62  43  49 N8        30.25R                  
6HR MIN TEMP:  62; 6HR MAX TEMP:  73;                                

TALLULAH       CLEAR     60  45  57 N8        30.22R                  
6HR MIN TEMP:  60; 6HR MAX TEMP:  72;                                


$$

  


728 
ASUS44 KLIX 170013
RWRLIX
NEW ORLEANS REGIONAL WEATHER ROUNDUP
NATIONAL WEATHER SERVICE NEW ORLEANS LA
700 PM CDT MON OCT 16 2017

NOTE: "FAIR" INDICATES FEW OR NO CLOUDS BELOW 12,000 FEET WITH NO
      SIGNIFICANT WEATHER AND/OR OBSTRUCTIONS TO VISIBILITY.
      SKY/WX - SKY CONDITION AND SIGNIFICANT WEATHER.
      TMP - AIR TEMPERATURE.     DP    - DEWPOINT TEMPERATURE.
      RH  - RELATIVE HUMIDITY.   PRES  - PRESSURE.
      HI  - HEAT INDEX.          WCI   - WIND CHILL INDEX.

*  THESE STATIONS ARE NOT NWS OR FAA STATIONS AND ARE NOT UNDER
   NWS QUALITY CONTROL. 

LAZ038-040-048-061>063-065>067-069-170100-
SOUTHEAST LOUISIANA
  
CITY           SKY/WX    TMP DP  RH WIND       PRES   REMARKS
N.O. INTL ARPT CLOUDY    71  50  47 N10G21    30.11R                  
6HR MIN TEMP:  71; 6HR MAX TEMP:  75;                                

N.O. LAKEFRONT CLOUDY    73  52  47 N20       30.12R                  
6HR MIN TEMP:  73; 6HR MAX TEMP:  77;                                

N.O. DOWNTOWN*   N/A     72  48  42 N7        30.12R                  
6HR MIN TEMP:  71; 6HR MAX TEMP:  76;                                

RESERVE*         N/A     70  46  42 N13       30.13R                  
6HR MIN TEMP:  70; 6HR MAX TEMP:  76;                                

SLIDELL        PTCLDY    65  53  65 N6        30.12R                  
6HR MIN TEMP:  64; 6HR MAX TEMP:  76;                                

BATON ROUGE    MOCLDY    66  46  48 N7        30.15R                  
6HR MIN TEMP:  66; 6HR MAX TEMP:  75;                                

BOOTHVILLE     MOCLDY    74  57  55 N10G20    30.08R                  
6HR MIN TEMP:  71; 6HR MAX TEMP:  75;                                

BELLE CHASSE   NOT AVBL                                               
BOGALUSA*        N/A     61  53  76 CALM      30.15R                  
6HR MIN TEMP:  61; 6HR MAX TEMP:  76;                                

GALLIANO*      PTCLDY    69  50  49 N10G16    30.10R                  
6HR MIN TEMP:  69; 6HR MAX TEMP:  74;                                

NEW ROADS*       N/A     65  46  49 N6        30.17R                  
6HR MIN TEMP:  65; 6HR MAX TEMP:  75;                                

GONZALES*        N/A     67  47  49 N6        30.13R                  
6HR MIN TEMP:  67; 6HR MAX TEMP:  75; 6HR PCP:  0.02;                

HAMMOND*       CLOUDY    61  48  63 N3        30.14R                  
HOUMA*         CLEAR     66  48  52 N7        30.11R                  
PORT FOURCHON* PTCLDY    73  54  49 N15G22    30.09S                  

$$

MSZ070-080>082-170100-
SOUTHERN MISSISSIPPI
  
CITY           SKY/WX    TMP DP  RH WIND       PRES   REMARKS
MCCOMB         MOCLDY    63  47  55 N3        30.17R                  
6HR MIN TEMP:  63; 6HR MAX TEMP:  74;                                

GULFPORT       MOCLDY    68  48  48 N9        30.11R                  
6HR MIN TEMP:  68; 6HR MAX TEMP:  76;                                

BILOXI         CLOUDY    67  51  56 N7        30.11R                  
6HR MIN TEMP:  67; 6HR MAX TEMP:  74;                                

PASCAGOULA     CLOUDY    62  52  69 N6        30.11R                  
6HR MIN TEMP:  62; 6HR MAX TEMP:  75;                                

STENNIS ARPT*  CLEAR     66  50  55 N7        30.12R                  

$$

COASTAL OBSERVATIONS
LAKE AND NEARSHORE STATIONS
  
STATION/POSITION TIME  TEMP    WIND        PRES    WAVE
                       AIR SEA DIR/SP/G            HT/PER
                 (UTC) (F)     (DEG/KT/KT) (MB)    (FT/S)
PASCAGOULA       2342   68      40/  5/  8 1018.9
WAVELAND YACHT   2348   70 77   10/ 12/ 15 1019.7
GRAND ISLE       2348   74 80   40/ 12/ 21 1018.8
SOUTHWEST PASS   2348           40/ 23/ 27   N/A
NEW CANAL        2348   73 79   20/ 17/ 20 1019.5
SHELL BEACH      2348   73 80   20/ 18/ 20 1019.7

OFFSHORE STATIONS
  
STATION/POSITION TIME  TEMP    WIND        PRES    WAVE
                       AIR SEA DIR/SP/G            HT/PER
                 (UTC) (F)     (DEG/KT/KT) (MB)    (FT/S)
64 S DAUPHIN ISL 2350   73 83   10/ 19/ 23 1017.4    4/ 5

$$

  

Return to Home page


Western Regional Climate Center, wrcc@dri.edu